Abilene, TX

7:08 AM CST on December 16, 2017 (GMT -0600)
Abilene Regional

Weather History for KABI - September, 2013

Change the Weather History Date:

Tuesday, September 24, 2013

  Actual Average Record
Temperature  
Mean Temperature 76 °F 73 °F  
Max Temperature 90 °F 84 °F 99 °F (1979)
Min Temperature 61 °F 61 °F 38 °F (1989)
Degree Days  
Heating Degree Days 0 1  
Month to date heating degree days 0 5  
Since 1 July heating degree days 0 5  
Cooling Degree Days 11 8  
Month to date cooling degree days 359 282  
Year to date cooling degree days 2513 2227  
Growing Degree Days 26 (Base 50)    
Moisture  
Dew Point 53 °F    
Average Humidity 52    
Maximum Humidity 78    
Minimum Humidity 26    
Precipitation  
Precipitation 0.00 in 0.08 in 2.51 in (1955)
Month to date precipitation 1.18 1.81  
Year to date precipitation 17.51 18.77  
Sea Level Pressure  
Sea Level Pressure 29.88 in    
Wind  
Wind Speed 7 mph (ENE)    
Max Wind Speed 15 mph    
Max Gust Speed 25 mph    
Visibility 10 miles    
Events      
T = Trace of Precipitation, MM = Missing Value Source: NWS Daily Summary

Daily Weather History Graph

Daily Weather History Graph

Search for Another Location

Airport or City:

Trip Planner

Search our weather history database for the weather conditions in past years. The results will help you decide how hot, cold, wet, or windy it might be!

Date:

Astronomy

Sep. 24, 2013 Rise Set
Actual Time 7:28 AM CDT 7:32 PM CDT
Civil Twilight 7:03 AM CDT 7:56 PM CDT
Nautical Twilight 6:35 AM CDT 8:25 PM CDT
Astronomical Twilight 6:06 AM CDT 8:54 PM CDT
Moon 11:08 PM CDT (9/24) 12:27 PM CDT (9/24)
Length of Visible Light 12h 52m
Length of Day
12h 03m
Waning Gibbous, 73% of the Moon is Illuminated
Sep 24
Waning Gibbous
Sep 26
Last Quarter
Oct 4
New
Oct 11
First Quarter
Oct 18
Full

Hourly Weather History & Observations

Time (CDT) Temp. Heat Index Dew Point Humidity Pressure Visibility Wind Dir Wind Speed Gust Speed Precip Events Conditions
12:52 AM 73.0 °F - 50.0 °F 44% 29.79 in 10.0 mi SSE 6.9 mph - N/A   Clear
1:52 AM 72.0 °F - 50.0 °F 46% 29.80 in 10.0 mi SSE 10.4 mph - N/A   Clear
2:52 AM 69.1 °F - 50.0 °F 51% 29.81 in 10.0 mi SSE 6.9 mph - N/A   Clear
3:52 AM 66.9 °F - 51.1 °F 57% 29.81 in 10.0 mi South 6.9 mph - N/A   Clear
4:52 AM 68.0 °F - 55.0 °F 63% 29.81 in 10.0 mi SSW 6.9 mph - N/A   Clear
5:52 AM 66.0 °F - 55.9 °F 70% 29.83 in 10.0 mi WNW 8.1 mph 17.3 mph N/A   Clear
6:52 AM 63.0 °F - 55.9 °F 78% 29.87 in 10.0 mi WNW 3.5 mph - N/A   Clear
7:52 AM 61.0 °F - 52.0 °F 72% 29.90 in 10.0 mi WNW 4.6 mph - N/A   Clear
8:52 AM 64.0 °F - 51.1 °F 63% 29.92 in 10.0 mi WNW 10.4 mph - N/A   Clear
9:52 AM 66.9 °F - 53.1 °F 61% 29.94 in 10.0 mi NNW 10.4 mph - N/A   Clear
10:52 AM 72.0 °F - 55.0 °F 55% 29.95 in 10.0 mi NNW 9.2 mph - N/A   Clear
11:52 AM 77.0 °F - 55.0 °F 47% 29.96 in 10.0 mi North 8.1 mph - N/A   Clear
12:52 PM 82.0 °F 81.4 °F 55.0 °F 39% 29.94 in 10.0 mi NNE 8.1 mph - N/A   Clear
1:52 PM 87.1 °F 85.7 °F 55.9 °F 35% 29.91 in 10.0 mi East 10.4 mph 18.4 mph N/A   Clear
2:52 PM 88.0 °F 86.1 °F 55.0 °F 32% 29.89 in 10.0 mi NE 5.8 mph - N/A   Clear
3:52 PM 88.0 °F 85.9 °F 54.0 °F 31% 29.88 in 10.0 mi East 10.4 mph - N/A   Clear
4:52 PM 89.1 °F 86.7 °F 53.1 °F 29% 29.86 in 10.0 mi East 6.9 mph - N/A   Clear
5:52 PM 89.1 °F - 50.0 °F 26% 29.86 in 10.0 mi ENE 8.1 mph - N/A   Clear
6:52 PM 87.1 °F - 51.1 °F 29% 29.87 in 10.0 mi NE 8.1 mph - N/A   Clear
7:52 PM 82.0 °F 81.2 °F 53.1 °F 37% 29.88 in 10.0 mi NE 5.8 mph - N/A   Clear
8:52 PM 78.1 °F - 53.1 °F 42% 29.89 in 10.0 mi NE 6.9 mph - N/A   Clear
9:52 PM 75.0 °F - 52.0 °F 44% 29.90 in 10.0 mi ENE 6.9 mph - N/A   Clear
10:52 PM 73.0 °F - 51.1 °F 46% 29.90 in 10.0 mi East 5.8 mph - N/A   Clear
11:52 PM 68.0 °F - 52.0 °F 56% 29.90 in 10.0 mi ESE 5.8 mph - N/A   Clear